This is the latest recevied weather packets stored in our database for station/object IW4CYE-7. If no packets are shown the sender has not sent any weather packets the latest 10 day(s).
| Time | Temp. | Humidity | Pressure | Rain* | Wind** | Luminosity | Snow |
|---|---|---|---|---|---|---|---|
| 1787678842 | 27.78° C | 68% | 1000.3 hPa | 0 mm | - | - | - |
| 1787678242 | 27.78° C | 67% | 1000.3 hPa | 0 mm | - | - | - |
| 1787677642 | 27.78° C | 68% | 1000 hPa | 0 mm | - | - | - |
| 1787677042 | 28.33° C | 66% | 1000 hPa | 0 mm | - | - | - |
| 1787676442 | 28.33° C | 66% | 1000 hPa | 0 mm | - | - | - |
| 1787675842 | 29.44° C | 64% | 1000 hPa | 0 mm | - | - | - |
| 1787675242 | 28.89° C | 60% | 1000 hPa | 0 mm | - | - | - |
| 1787674642 | 29.44° C | 60% | 999.7 hPa | 0 mm | - | - | - |
| 1787674042 | 29.44° C | 59% | 1000 hPa | 0 mm | - | - | - |
| 1787673442 | 30° C | 60% | 999.7 hPa | 0 mm | - | - | - |
| 1787672842 | 29.44° C | 60% | 999.7 hPa | 0 mm | - | - | - |
| 1787672242 | 29.44° C | 60% | 999.7 hPa | 0 mm | - | - | - |
| 1787671642 | 30° C | 59% | 999.7 hPa | 0 mm | - | - | - |
| 1787671041 | 30.56° C | 55% | 999.7 hPa | 0 mm | - | - | - |
| 1787670441 | 31.11° C | 53% | 999.7 hPa | 0 mm | - | - | - |
| 1787669842 | 30.56° C | 54% | 999.7 hPa | 0 mm | - | - | - |
| 1787669241 | 31.11° C | 53% | 999.3 hPa | 0 mm | - | - | - |
| 1787668641 | 31.11° C | 52% | 999.3 hPa | 0 mm | - | - | - |
| 1787668041 | 31.11° C | 53% | 999.3 hPa | 0 mm | - | - | - |
| 1787667441 | 30.56° C | 52% | 999.3 hPa | 0 mm | - | - | - |
| 1787666841 | 30.56° C | 53% | 999 hPa | 0 mm | - | - | - |
| 1787666241 | 31.67° C | 52% | 999.3 hPa | 0 mm | - | - | - |
| 1787665641 | 30° C | 55% | 999 hPa | 0 mm | - | - | - |
| 1787665041 | 30.56° C | 57% | 999.3 hPa | 0 mm | - | - | - |
| 1787664441 | 30.56° C | 52% | 999 hPa | 0 mm | - | - | - |
* Rain latest hour (hover to see other rain measurements)
** Current wind speed in m/s (hover to see current wind gust speed)